Flag for Slovenia Weather past 2 weeks in Kranj, Slovenia

Now
63 °F

Partly sunny.


Feels Like: 63 °F
Forecast: 37 / 72 °F
Wind: 7 mph from North

Location: Ljubljana Airport / Brnik

Current Time: May 27, 2015 at 5:03:11 PM

Latest Report: May 27, 2015 at 4:30 PM


Visibility: N/A

Pressure: 30.04 "Hg

Humidity: 32%

Dew point: 32 °F

Location of KranjLocation

Historic Weather in Kranj — Graph

°F

Kranj temperature yesterday

Maximum temperature yesterday: 70 °F (at 1:00 PM)
Minimum temperature yesterday: 48 °F (at 5:30 AM)
Average temperature yesterday: 58 °F

Past Weeks' High & Low Weather Summary

 TemperatureHumidityPressure
High81 °F (May 13, 4:00 PM)100% (May 13, 7:00 AM)30.21 "Hg (May 13, 7:00 AM)
Low48 °F (May 13, 6:00 AM)28% (May 27, 2:30 PM)29.74 "Hg (May 19, 4:00 PM)
Average59 °F80%29.96 "Hg
* Reported May 12 4:00 PM — May 27 4:00 PM, Kranj, Weather by CustomWeather, © 2015

Note: Actual official high and low records may vary slightly from our data, if they occured in-between our weather recording intervals... More about our weather records

Advertising

Kranj weather history for previous 24 hours

 ConditionsComfort  
Time TempWeatherWind HumidityBarometerVisibility
4:00 PM
Wed, May 27
64 °FPartly sunny.12 mph28%30.04 "HgN/A
3:30 PM64 °FPartly sunny.8 mph30%30.04 "HgN/A
3:00 PM64 °FPartly sunny.9 mph34%30.04 "HgN/A
2:30 PM64 °FPartly sunny.13 mph28%30.04 "HgN/A
2:00 PM64 °FPartly sunny.13 mph30%30.04 "HgN/A
1:30 PM63 °FPartly sunny.12 mph30%30.04 "HgN/A
1:00 PM63 °FPartly sunny.10 mph32%30.04 "HgN/A
12:30 PM61 °FPartly sunny.7 mph36%30.04 "HgN/A
12:00 PM61 °FPartly sunny.8 mph36%30.04 "HgN/A
11:30 AM61 °FPartly sunny.13 mph36%30.01 "HgN/A
11:00 AM61 °FPartly sunny.8 mph36%30.01 "HgN/A
10:30 AM61 °FScattered clouds.2 mph59%30.01 "HgN/A
10:00 AM59 °FScattered clouds.2 mph63%30.01 "HgN/A
9:30 AM57 °FPartly sunny.5 mph72%30.01 "HgN/A
9:00 AM55 °FPartly sunny.5 mph88%30.01 "HgN/A
8:30 AM55 °FBroken clouds.5 mph88%30.01 "HgN/A
8:00 AM54 °FPartly sunny.2 mph88%30.01 "HgN/A
7:30 AM54 °FPartly sunny.1 mph94%30.01 "HgN/A
7:00 AM52 °FPartly sunny.2 mph100%29.98 "Hg2 mi
6:30 AM52 °FFog.1 mph100%29.98 "Hg1 mi
5:30 AM52 °FCool.1 mph100%29.95 "Hg1 mi
5:00 AM52 °FFog.1 mph100%29.95 "Hg3 mi
4:30 AM54 °FFog.3 mph94%29.95 "HgN/A
4:00 AM54 °FFog.3 mph94%29.95 "HgN/A
3:30 AM52 °FPassing clouds.2 mph100%29.95 "HgN/A
3:00 AM52 °FPassing clouds.2 mph100%29.95 "HgN/A
2:30 AM52 °FPassing clouds.No wind100%29.95 "HgN/A
2:00 AM52 °FPassing clouds.No wind100%29.95 "HgN/A
1:30 AM52 °FPassing clouds.1 mph100%29.95 "HgN/A
1:00 AM52 °FPassing clouds.1 mph100%29.95 "HgN/A
12:30 AM52 °FPassing clouds.No wind100%29.95 "HgN/A
12:00 AM52 °FPassing clouds.No wind100%29.95 "HgN/A
11:30 PM
Tue, May 26
52 °FPassing clouds.1 mph100%29.95 "HgN/A
11:00 PM54 °FPassing clouds.1 mph94%29.95 "HgN/A
10:30 PM54 °FPassing clouds.1 mph94%29.92 "HgN/A
10:00 PM54 °FPassing clouds.1 mph94%29.92 "HgN/A
9:30 PM55 °FScattered clouds.No wind94%29.92 "HgN/A
9:00 PM55 °FScattered clouds.No wind94%29.89 "HgN/A
8:30 PM57 °FPartly sunny.2 mph88%29.89 "HgN/A
8:00 PM57 °FPartly sunny.2 mph88%29.89 "HgN/A
7:30 PM59 °FScattered showers. Partly sunny.5 mph88%29.89 "HgN/A
7:00 PM59 °FScattered showers. Broken clouds.2 mph82%29.86 "HgN/A
6:30 PM59 °FScattered showers. Broken clouds.2 mph82%29.86 "HgN/A
6:00 PM59 °FScattered showers. Broken clouds.5 mph82%29.86 "HgN/A
5:30 PM61 °FScattered showers. Broken clouds.5 mph77%29.86 "HgN/A
5:00 PM59 °FScattered showers. Broken clouds.5 mph82%29.83 "HgN/A
Weather by CustomWeather, © 2015

See weather overviewHow to use our weather pages